Regional Weather Roundup
Issued by NWS Jackson, KY

Home | Current Version | Previous Version | Text Only | Print | Product List | Glossary Off
Versions: 1 2 3 4 5 6 7 8 9 10 11 12 13 14 15 16 17 18 19 20 21 22 23 24 25 26 27

000
ASUS43 KJKL 281710
RWRJKL

EAST KENTUCKY HOURLY WEATHER ROUNDUP
NATIONAL WEATHER SERVICE JACKSON KY
100 PM EDT WED SEP 28 2016

NOTE: "FAIR" INDICATES FEW OR NO CLOUDS BELOW 12,000 FEET WITH
NO SIGNIFICANT WEATHER AND/OR OBSTRUCTIONS TO VISIBILITY.

* THESE REPORTS ARE NOT UNDER NWS QUALITY CONTROL AND MAY NOT
  REPORT WEATHER SUCH AS PRECIPITATION AND FOG.

KYZ079-080-083-085-087-088-110-112-115-119-120-281800
...EASTERN KENTUCKY...

CITY           SKY/WX    TMP DP  RH WIND       PRES   REMARKS
JACKSON        SUNNY     75  49  39 VRB6      29.90F
LONDON         SUNNY     75  43  31 SW12G22   29.91F
SOMERSET*      SUNNY     73  46  38 SW7G18    29.90F
MONTICELLO*    SUNNY     77  48  35 S10G29    29.91F
WILLIAMSBURG*  SUNNY     75  46  35 S10G17    29.92F
MIDDLESBORO*   SUNNY     75  47  37 S9        29.95F
HARLAN APT*    SUNNY     72  46  40 CALM      29.95F
PIKE CO APT*     N/A     73  46  37 SE7       29.92F
BIG SANDY APT* SUNNY     76  46  34 SW13G18   29.92S
MOREHEAD APT*  PTSUNNY   72  48  43 S7        29.89F
ASHLAND*       MOSUNNY   79  52  38 S15       29.86S
$$

KYZ035-036-041-042-044-050-067-078-099-281800
...CENTRAL KENTUCKY...

CITY           SKY/WX    TMP DP  RH WIND       PRES   REMARKS
MT STERLING*   CLOUDY    73  52  46 SW8       29.87F
FLEMING/MASON* CLOUDY    63  57  81 SE6       29.86F
DANVILLE*      MOSUNNY   73  46  38 SW16G24   29.86F
LEXINGTON      MOSUNNY   75  49  39 S16G25    29.83F
FRANKFORT      CLOUDY    70  49  47 W8G20     29.84R
LOUISVILLE     LGT RAIN  64  55  72 NW7       29.85R
LEBANON*         N/A     75  48  38 S20G32    29.83F
GLASGOW*       MOSUNNY   76  50  39 SW14G22   29.85F
BOWLING GREEN  CLOUDY    80  50  34 SW22G31   29.83F
$$

KYZ091>093-OHZ055-061-077-WVZ005-015-034-035-042-281800
...SOUTHERN OHIO/WEST VIRGINIA...

CITY           SKY/WX    TMP DP  RH WIND       PRES   REMARKS
COVINGTON      CLOUDY    62  54  74 SE14      29.83S
COLUMBUS       LGT RAIN  55  55 100 E12       29.89F FOG
DAYTON         LGT RAIN  58  55  90 E7        29.87S
WILMINGTON     CLOUDY    58  53  84 E9        29.86F
HUNTINGTON     SUNNY     77  45  32 S14G20    29.88F
CHARLESTON     MOSUNNY   77  41  27 SW10      29.91F
PINEVILLE*     SUNNY     74  43  32 MISG      30.00F
BECKLEY        SUNNY     72  50  45 W8G18     29.97F
BLUEFIELD      PTSUNNY   70  53  54 S10G16    30.00F
LOGAN CO APT*    N/A     72  48  43 VRB3      29.93F
$$

VAZ002-007-008-TNZ017-027-036-066-071-281800
...SOUTHWEST VIRGINIA/EAST TENNESSEE...

CITY           SKY/WX    TMP DP  RH WIND       PRES   REMARKS
WISE*          SUNNY     70  32  24 SW5       30.00F
JONESVILLE*      N/A     75  41  29 SW8       29.98F
ABINGDON*      SUNNY     73  57  55 W8        29.98F
BRISTOL        MOSUNNY   74  55  51 SW7       29.96F
MORRISTOWN*    SUNNY     75  39  27 VRB6G13   29.95F
SEVIERVILLE*   SUNNY     75  45  33 W3        29.95F
OAK RIDGE      SUNNY     77  43  29 MISG      29.95F
CROSSVILLE     SUNNY     74  43  32 VRB5      29.97F
NASHVILLE      MOSUNNY   79  47  32 S15G23    29.91F
$$

...KEY TO REMARKS...
VSB - VISIBILITY IN MILES
WCI - WIND CHILL INDEX
HX  - HEAT INDEX

$$




USA.gov is the U.S. government's official web portal to all federal, state and local government web resources and services.